Weather History for KICR - November, 2012

Change the Weather History Date:

Monday, November 5, 2012

  Actual Average Record
Temperature  
Mean Temperature 46 °F 42 °F  
Max Temperature 55 °F 52 °F - ()
Min Temperature 36 °F 31 °F - ()
Degree Days  
Heating Degree Days 19 23  
Month to date heating degree days 130 111  
Since 1 July heating degree days 675 709  
Cooling Degree Days 0 0  
Month to date cooling degree days 0 0  
Year to date cooling degree days 1470 916  
Moisture  
Dew Point 37 °F    
Average Humidity 81    
Maximum Humidity 100    
Minimum Humidity 61    
Precipitation  
Precipitation 0.01 in 0.02 in - ()
Month to date precipitation 0.01 0.15  
Year to date precipitation 10.16 20.78  
Sea Level Pressure  
Sea Level Pressure 30.14 in    
Wind  
Wind Speed 8 mph (WNW)    
Max Wind Speed 20 mph    
Max Gust Speed 24 mph    
Visibility 6 miles    
Events Rain    
T = Trace of Precipitation, MM = Missing Value Source: NWS Daily Summary

Daily Weather History Graph

Daily Weather History Graph

Search for Another Location

Airport or City:

Trip Planner

Search our weather history database for the weather conditions in past years. The results will help you decide how hot, cold, wet, or windy it might be!

Date:

Astronomy

Nov. 05, 2012 Rise Set
Actual Time 7:20 AM CST 5:24 PM CST
Civil Twilight 6:50 AM CST 5:54 PM CST
Nautical Twilight 6:16 AM CST 6:28 PM CST
Astronomical Twilight 5:43 AM CST 7:02 PM CST
Moon 11:04 PM CST 12:41 PM CST
Length of Visible Light 11h 04m
Length of Day
10h 04m
Waning Gibbous, 62% of the Moon is Illuminated
Nov 5
Waning Gibbous
Nov 6
Last Quarter
Nov 13
New
Nov 20
First Quarter
Nov 28
Full

Hourly Weather History & Observations

Time (CST) Temp. Windchill Dew Point Humidity Pressure Visibility Wind Dir Wind Speed Gust Speed Precip Events Conditions
12:13 AM 35.6 °F 28.6 °F 35.6 °F 100% 30.19 in 2.5 mi NNW 9.2 mph - N/A   Overcast
12:25 AM 35.6 °F 27.5 °F 35.6 °F 100% 30.19 in 3.0 mi NNW 11.5 mph - N/A   Overcast
12:32 AM 35.6 °F 27.1 °F 35.6 °F 100% 30.19 in 3.0 mi NNW 12.7 mph - N/A   Overcast
12:53 AM 36.0 °F 28.5 °F 35.1 °F 97% 30.25 in 4.0 mi NNW 10.4 mph - N/A   Overcast
1:02 AM 35.6 °F 28.6 °F 35.6 °F 100% 30.20 in 5.0 mi NNW 9.2 mph - N/A   Overcast
1:53 AM 36.0 °F 29.6 °F 35.1 °F 97% 30.25 in 4.0 mi NNW 8.1 mph - N/A   Overcast
2:18 AM 35.6 °F 30.7 °F 35.6 °F 100% 30.21 in 3.0 mi NNW 5.8 mph - N/A   Overcast
4:50 AM 37.4 °F 32.8 °F 35.6 °F 93% 30.21 in 4.0 mi NW 5.8 mph - N/A   Overcast
4:53 AM 37.0 °F 32.4 °F 36.0 °F 96% 30.25 in 4.0 mi NW 5.8 mph - N/A   Overcast
6:17 AM 37.4 °F 31.4 °F 37.4 °F 100% 30.20 in 2.5 mi NNW 8.1 mph - N/A   Overcast
6:53 AM 37.9 °F 32.1 °F 37.0 °F 97% 30.24 in 2.0 mi North 8.1 mph - N/A   Overcast
7:07 AM 37.4 °F 32.1 °F 37.4 °F 100% 30.19 in 2.5 mi North 6.9 mph - 0.00 in Rain Light Rain
7:16 AM 37.4 °F 31.4 °F 37.4 °F 100% 30.19 in 2.0 mi North 8.1 mph - 0.00 in Rain Light Rain
7:30 AM 37.4 °F 32.8 °F 37.4 °F 100% 30.20 in 2.5 mi North 5.8 mph - 0.00 in   Overcast
7:51 AM 37.4 °F 31.4 °F 35.6 °F 93% 30.20 in 5.0 mi North 8.1 mph - 0.00 in   Overcast
7:53 AM 37.9 °F 32.7 °F 36.0 °F 93% 30.25 in 5.0 mi North 6.9 mph - 0.00 in   Overcast
8:53 AM 37.9 °F 33.5 °F 37.0 °F 97% 30.26 in 3.0 mi NW 5.8 mph - N/A   Overcast
9:53 AM 39.0 °F 36.8 °F 37.9 °F 96% 30.25 in 3.0 mi NW 3.5 mph - N/A   Overcast
10:42 AM 39.2 °F - 37.4 °F 93% 30.19 in 6.0 mi Calm Calm - N/A   Overcast
10:53 AM 41.0 °F 38.0 °F 37.9 °F 89% 30.24 in 7.0 mi NW 4.6 mph - N/A   Overcast
11:20 AM 41.0 °F - 37.4 °F 87% 30.18 in 8.0 mi Calm Calm - N/A   Overcast
11:53 AM 42.1 °F - 37.9 °F 85% 30.20 in 10.0 mi Calm Calm - N/A   Overcast
12:53 PM 43.0 °F 41.3 °F 37.0 °F 80% 30.15 in 10.0 mi SSW 3.5 mph - N/A   Overcast
1:53 PM 45.0 °F - 37.9 °F 76% 30.12 in 10.0 mi Calm Calm - N/A   Overcast
2:31 PM 46.4 °F 43.5 °F 37.4 °F 71% 30.05 in 10.0 mi SSW 5.8 mph - N/A   Scattered Clouds
2:53 PM 46.9 °F - 37.9 °F 71% 30.06 in 10.0 mi South 4.6 mph - N/A   Clear
3:53 PM 48.9 °F - 39.0 °F 69% 30.06 in 10.0 mi South 8.1 mph - N/A   Overcast
4:53 PM 46.9 °F - 39.0 °F 74% 30.04 in 10.0 mi SSE 8.1 mph - N/A   Overcast
5:53 PM 46.0 °F 41.0 °F 39.0 °F 76% 30.01 in 10.0 mi SSE 10.4 mph - 0.00 in   Mostly Cloudy
6:53 PM 45.0 °F 38.9 °F 37.9 °F 76% 29.97 in 10.0 mi South 12.7 mph - N/A   Scattered Clouds
7:53 PM 48.0 °F - 37.0 °F 66% 29.98 in 10.0 mi South 11.5 mph - N/A   Overcast
8:53 PM 48.0 °F - 37.0 °F 66% 29.95 in 10.0 mi SSW 17.3 mph - 0.00 in   Mostly Cloudy
9:53 PM 48.9 °F - 36.0 °F 61% 29.93 in 10.0 mi SSW 17.3 mph 24.2 mph N/A   Mostly Cloudy
10:53 PM 48.9 °F - 39.0 °F 69% 29.94 in 10.0 mi SW 10.4 mph - 0.00 in Rain Light Rain
11:53 PM 55.0 °F - 46.0 °F 72% 29.92 in 10.0 mi WNW 16.1 mph - 0.01 in   Mostly Cloudy